Location: Seattle
(47.6064°N, 122.3308°W)
Time: 07:20:01
(UTC-08:00)

A-11 Canister half - All Passes

Search period start: 26 November 2020 00:00
Search period end: 06 December 2020 00:00
Orbit: 1525 x 1684 km, 47.3° (Epoch: 26 November)

Date Brightness Start Highest point End Pass type
(mag) Time Alt. Az. Time Alt. Az. Time Alt. Az.
26 Nov - 03:51:19 10° ESE 03:51:48 10° ESE 03:52:17 10° ESE visible
26 Nov - 05:45:37 10° SSW 05:54:39 39° SE 06:03:33 10° ENE visible
26 Nov - 07:48:51 10° WSW 07:58:57 76° SSE 08:08:46 10° ENE daylight
26 Nov - 09:54:03 10° W 10:04:08 88° S 10:13:51 10° E daylight
26 Nov - 11:59:21 10° WNW 12:09:00 61° SSW 12:18:18 10° SE daylight
26 Nov - 14:05:23 10° W 14:12:33 24° SW 14:19:35 10° S daylight
27 Nov - 05:24:06 10° SSW 05:33:02 37° SE 05:41:51 10° ENE visible
27 Nov - 07:27:11 10° WSW 07:37:16 75° SSE 07:47:07 10° ENE daylight
27 Nov - 09:32:21 10° W 09:42:27 89° S 09:52:12 10° E daylight
27 Nov - 11:37:39 10° WNW 11:47:22 63° SSW 11:56:43 10° SE daylight
27 Nov - 13:43:35 10° W 13:50:59 25° SW 13:58:14 10° S daylight
28 Nov - 05:02:37 10° SSW 05:11:26 36° SE 05:20:08 10° ENE visible
28 Nov - 07:05:32 10° WSW 07:15:37 73° SSE 07:25:28 10° ENE daylight
28 Nov - 09:10:39 10° W 09:20:46 89° S 09:30:33 10° E daylight
28 Nov - 11:15:58 10° WNW 11:25:44 65° SSW 11:35:08 10° SE daylight
28 Nov - 13:21:47 10° W 13:29:25 27° SW 13:36:52 10° S daylight
29 Nov - 04:41:07 10° SSW 04:49:49 34° SE 04:58:26 10° ENE visible
29 Nov - 06:43:51 10° WSW 06:53:56 72° SSE 07:03:48 10° ENE visible
29 Nov - 08:48:56 10° W 08:59:05 89° S 09:08:54 10° E daylight
29 Nov - 10:54:16 10° WNW 11:04:05 66° SSW 11:13:33 10° SE daylight
29 Nov - 13:00:01 10° W 13:07:51 28° SW 13:15:30 10° S daylight
30 Nov - 04:19:38 10° SSW 04:28:12 33° SE 04:36:41 10° ENE visible
30 Nov - 06:22:12 10° WSW 06:32:16 70° SSE 06:42:08 10° ENE visible
30 Nov - 08:27:14 10° W 08:37:24 89° S 08:47:15 10° E daylight
30 Nov - 10:32:34 10° WNW 10:42:27 68° SSW 10:51:57 10° SE daylight
30 Nov - 12:38:14 10° WNW 12:46:17 30° SW 12:54:06 10° S daylight
01 Dec - 03:58:11 10° S 04:06:37 31° SE 04:14:58 10° ENE visible
01 Dec - 06:00:33 10° SW 06:10:36 69° SSE 06:20:29 10° ENE visible
01 Dec - 08:05:32 10° W 08:15:42 89° S 08:25:35 10° E daylight
01 Dec - 10:10:52 10° WNW 10:20:47 70° SSW 10:30:21 10° ESE daylight
01 Dec - 12:16:29 10° WNW 12:24:42 31° SW 12:32:41 10° SSE daylight
02 Dec - 03:36:44 10° S 03:45:00 30° SE 03:53:13 10° ENE visible
02 Dec - 05:38:54 10° SW 05:48:56 67° SSE 05:58:48 10° ENE visible
02 Dec - 07:43:49 10° W 07:54:01 89° S 08:03:55 10° E daylight
02 Dec - 09:49:10 10° WNW 09:59:08 71° SSW 10:08:44 10° ESE daylight
02 Dec - 11:54:44 10° WNW 12:03:07 33° SW 12:11:16 10° SSE daylight
03 Dec - 03:15:18 10° S 03:23:24 28° SE 03:31:28 10° E visible
03 Dec - 05:17:16 10° SW 05:27:16 65° SSE 05:37:08 10° ENE visible
03 Dec - 07:22:07 10° W 07:32:20 89° S 07:42:16 10° E daylight
03 Dec - 09:27:28 10° WNW 09:37:29 73° SSW 09:47:08 10° ESE daylight
03 Dec - 11:33:00 10° WNW 11:41:32 35° SW 11:49:50 10° SSE daylight
04 Dec - 02:53:53 10° S 03:01:48 27° SE 03:09:42 10° E visible
04 Dec - 04:55:38 10° SW 05:05:37 64° SSE 05:15:28 10° ENE visible
04 Dec - 07:00:25 10° W 07:10:38 89° S 07:20:36 10° E visible
04 Dec - 09:05:46 10° WNW 09:15:49 75° SSW 09:25:31 10° ESE daylight
04 Dec - 11:11:14 10° WNW 11:19:56 36° SW 11:28:23 10° SSE daylight
05 Dec - 02:32:30 10° S 02:40:13 26° SE 02:47:55 10° E visible
05 Dec - 04:34:00 10° SW 04:43:57 62° SSE 04:53:47 10° ENE visible
05 Dec - 06:38:43 10° W 06:48:56 88° S 06:58:55 10° E visible
05 Dec - 08:44:04 10° WNW 08:54:08 76° SSW 09:03:53 10° ESE daylight
05 Dec - 10:49:30 10° WNW 10:58:20 38° SW 11:06:55 10° SSE daylight
